Wind_Speed
11 9 14 16 17 19 23 27 34 35 22 40 40 46 28 25 25 31 29 32 31 29 27 27 26 27 27 27 28 31 33 34 36 38 39 40 40 40 40 38 38 38 39 40
15 8 16 17 18 20 23 31 35 27 39 36 34 27 26 25 21 17 19 25 25 27 27 27 27 27 26 25 26 26 27 28 31 34 36 38 39 39 39 39 37 39 39 40
12 13 19 19 17 22 24 24 32 35 40 27 31 15 23 22 20 9 12 17 19 23 27 26 24 23 23 22 21 20 20 21 24 28 31 34 37 38 39 40 41 40 42 44
11 21 19 17 17 20 28 29 33 35 31 13 22 10 19 25 21 15 7 14 16 17 18 18 20 18 18 19 15 13 14 15 18 24 26 28 31 35 37 40 43 44 44 46
19 18 18 15 17 21 24 31 33 30 17 11 8 6 12 22 20 17 12 3 14 20 18 16 16 17 18 16 17 17 17 18 18 18 22 25 28 30 34 36 37 40 41 44
19 13 11 18 16 21 24 30 20 10 7 1 6 7 12 20 17 13 12 9 7 10 12 13 14 14 15 17 17 17 18 17 16 17 19 21 22 23 24 26 31 31 33 34
14 11 12 13 20 20 26 25 8 5 5 3 10 10 13 17 15 11 7 2 5 8 9 10 9 10 13 15 15 15 13 12 14 16 18 21 24 23 22 20 23 26 25 27
16 6 17 19 18 20 16 15 6 4 4 8 15 6 11 14 13 8 7 4 4 5 6 7 8 10 12 13 13 13 11 11 12 14 18 20 25 25 20 18 19 20 25 28
10 9 18 14 19 19 11 9 9 5 8 5 8 10 4 11 16 17 10 5 7 10 13 13 14 14 15 14 12 11 11 11 12 15 17 20 22 22 20 21 23 26 28 29
14 14 9 17 21 12 9 8 4 4 5 5 8 12 8 6 13 21 21 17 13 13 14 16 17 19 20 19 17 15 13 13 14 15 17 19 21 21 19 21 21 23 27 30
20 9 19 18 12 14 6 5 2 6 3 2 4 14 11 5 14 25 26 26 22 18 18 19 20 21 22 22 22 20 18 17 17 17 18 19 20 23 25 25 24 23 23 26
14 15 16 24 15 5 8 8 8 2 3 7 5 14 4 5 27 33 26 22 21 19 17 17 19 21 23 23 25 23 23 22 21 21 21 19 19 21 22 24 25 20 18 21
23 10 14 10 4 11 14 23 15 12 14 16 5 11 10 27 28 20 17 17 19 18 17 18 19 19 20 21 24 26 25 24 25 24 23 20 20 21 21 20 23 20 20 20
25 20 22 20 29 31 39 36 31 25 16 15 33 42 22 27 20 11 12 14 15 16 18 19 19 20 20 20 21 25 27 27 27 27 24 23 22 21 21 19 18 18 21 19
22 28 34 39 37 36 36 33 31 34 35 24 31 38 27 20 15 9 14 15 16 17 19 21 21 21 20 21 22 22 22 27 28 28 27 26 26 23 21 19 19 17 21 17
32 32 35 46 40 28 33 39 37 28 26 32 28 25 17 9 8 12 17 23 23 26 26 24 24 23 23 23 23 22 21 21 24 26 28 29 28 25 22 20 18 17 16 18
37 34 26 20 26 31 30 3 14 25 24 18 17 16 5 8 22 27 29 29 32 30 29 33 30 26 26 25 25 23 23 23 21 22 25 26 26 24 22 21 17 18 17 15
39 36 30 25 23 3 8 21 31 15 14 14 23 6 7 21 32 29 32 33 38 39 38 34 34 33 29 29 28 26 24 23 24 22 22 23 23 22 21 20 19 18 17 15
26 31 19 9 10 24 32 15 11 25 32 26 4 5 26 30 35 42 40 39 39 39 38 36 37 33 32 30 30 29 27 25 23 24 23 20 21 20 20 19 19 18 17 15
15 19 24 15 9 6 1 15 25 32 29 8 14 32 42 48 55 49 46 47 43 39 41 44 41 38 35 32 33 31 28 27 24 25 26 23 20 20 21 19 19 18 18 16
23 22 33 39 19 23 29 30 28 11 12 17 43 53 50 50 44 50 55 50 46 46 45 44 48 47 40 37 35 32 28 27 24 26 24 24 24 20 20 21 19 19 18 17
24 24 27 23 14 14 7 6 17 24 37 53 53 50 55 54 54 55 56 54 53 50 45 42 45 46 43 38 39 31 28 21 27 26 25 22 24 23 21 20 21 19 18 16
31 27 27 33 41 37 26 55 44 45 48 52 52 44 44 49 52 54 52 48 45 43 43 40 40 45 43 40 38 41 28 26 26 29 26 25 23 23 23 22 20 21 20 19
36 36 42 39 44 52 41 49 48 42 42 38 35 40 48 49 48 48 47 47 46 45 45 44 42 42 44 40 40 42 38 31 32 29 30 28 28 25 24 25 23 21 22 22
32 42 54 53 49 49 54 33 34 45 45 48 39 38 40 44 47 47 45 44 43 44 44 44 44 44 42 40 42 39 37 40 40 36 34 33 31 31 27 25 25 24 22 23
46 47 43 61 48 43 42 40 48 43 37 37 39 42 41 41 43 43 43 41 41 42 44 45 45 45 39 38 41 38 37 40 39 38 35 33 33 31 31 28 26 26 25 23
Wind_Direction
340 342 353 348 344 335 325 317 314 327 336 321 323 318 333 325 280 257 247 243 238 235 240 245 248 250 251 255 260 261 263 265 266 268 270 270 269 267 266 264 263 262 261 258
349 350 341 340 336 329 324 318 324 329 331 326 330 336 350 341 324 258 233 235 234 232 236 242 247 250 260 263 265 269 269 269 270 270 270 270 270 269 268 265 260 258 257 255
348 339 337 332 334 326 326 319 324 321 330 338 338 349 357 357 352 308 229 230 235 235 232 242 251 252 253 258 264 271 273 274 273 272 272 272 273 272 269 265 262 257 255 255
347 334 331 331 333 329 325 327 325 322 326 329 335 294 6 8 12 1 322 233 229 234 235 235 244 243 245 250 255 263 274 280 279 276 278 281 280 278 274 269 265 262 259 258
342 333 332 335 335 333 326 331 322 317 312 322 341 304 358 5 14 15 8 268 220 199 207 221 224 230 246 249 253 267 272 274 281 283 288 290 286 285 280 273 268 264 261 261
342 335 346 336 339 334 332 339 326 334 336 303 342 341 317 355 7 10 33 74 133 179 189 202 221 232 241 251 259 265 270 280 294 301 307 315 309 302 298 286 274 268 266 264
354 345 349 348 342 339 336 354 342 354 3 270 315 312 321 351 349 356 354 343 161 179 198 219 238 248 251 258 262 271 272 285 299 305 318 326 327 318 308 294 280 271 269 266
345 342 340 334 341 338 352 18 34 301 330 302 298 247 356 9 11 6 353 348 317 289 279 285 281 274 274 276 274 278 276 281 295 311 323 327 336 331 313 306 294 287 276 270
335 312 323 335 341 343 339 357 347 277 280 286 292 311 76 22 30 27 19 354 315 305 301 297 289 283 279 280 284 285 288 296 306 317 323 333 338 331 316 306 300 291 286 280
330 310 319 332 329 342 339 344 339 329 347 306 295 292 294 345 7 7 4 5 342 320 307 291 284 281 280 280 279 281 285 290 299 307 318 324 326 331 329 328 318 301 294 285
331 319 313 324 314 314 315 327 314 309 246 225 307 291 305 310 353 351 343 336 334 323 312 302 292 285 279 275 276 278 277 281 289 299 305 312 318 324 329 330 323 318 313 297
331 304 299 314 307 299 303 291 289 275 244 239 257 278 309 332 345 334 326 323 323 320 320 313 308 304 292 278 265 266 273 278 283 289 295 305 313 317 325 322 323 326 319 320
322 304 315 324 323 330 317 311 288 272 273 246 208 261 303 326 336 334 330 341 341 334 325 320 317 314 309 297 279 268 268 274 277 281 288 298 306 307 314 319 326 325 325 313
309 289 281 262 288 294 294 294 286 269 260 255 253 287 329 333 333 344 355 356 359 354 346 338 331 324 318 311 303 286 274 270 273 278 284 290 297 301 306 312 314 323 328 332
293 289 295 296 298 296 298 294 281 267 262 251 291 293 327 337 335 14 1 350 345 340 334 331 327 325 319 314 310 304 289 271 268 275 280 283 288 292 295 298 303 322 336 345
296 291 295 295 303 303 298 302 295 279 267 270 294 304 343 2 7 2 344 333 332 332 326 326 322 318 315 314 310 309 306 293 276 270 274 279 281 283 284 287 300 307 315 325
282 282 289 288 299 303 303 157 319 310 295 301 292 327 358 356 348 338 336 336 336 334 328 320 318 315 313 307 305 303 301 301 292 282 277 276 277 278 279 282 288 294 304 315
269 269 273 284 302 241 279 312 312 312 329 324 312 302 341 327 333 330 332 333 328 328 326 319 308 308 306 305 297 294 294 293 293 289 282 280 279 279 277 277 276 283 294 302
261 258 254 258 241 275 294 287 320 323 318 316 226 325 324 323 320 316 324 325 323 321 317 317 313 309 309 309 294 290 288 287 285 288 284 281 283 279 277 275 272 279 286 294
277 280 243 240 248 242 357 294 307 309 302 186 320 321 318 318 317 304 317 315 314 317 315 310 309 307 303 303 303 286 286 280 283 277 282 285 281 280 276 273 274 274 280 287
267 265 247 251 251 265 283 291 290 289 296 297 313 315 314 317 312 311 307 307 306 303 303 302 303 303 301 295 291 294 287 281 278 276 276 279 280 277 276 274 271 275 277 280
281 272 254 242 245 273 290 302 305 298 286 293 297 300 302 303 300 297 297 299 300 303 303 297 294 294 293 292 285 282 281 285 273 272 276 275 277 277 275 272 270 267 270 272
270 268 271 276 274 277 253 298 297 294 297 296 295 296 294 291 295 298 300 303 305 307 306 305 296 288 287 285 287 281 270 269 268 268 269 274 273 275 274 271 269 268 264 265
285 282 265 272 277 286 282 290 299 296 290 288 285 288 291 294 297 300 300 299 299 300 299 297 295 293 287 283 284 288 269 256 266 270 269 267 271 271 272 272 268 265 264 261
263 275 282 279 284 282 290 298 296 296 295 290 291 298 296 295 297 300 299 299 301 298 294 291 288 288 289 281 280 281 278 268 258 258 265 265 262 267 267 267 268 264 262 262
276 276 271 288 299 295 288 296 297 296 300 300 302 301 299 301 302 301 303 304 300 296 293 294 293 287 283 279 276 277 277 277 272 252 256 262 261 257 260 260 262 264 263 262
Height
3114 3112 3109 3106 3104 3102 3098 3094 3087 3084 3081 3069 3062 3049 3041 3034 3027 3027 3033 3039 3046 3052 3058 3061 3064 3067 3070 3071 3073 3073 3074 3074 3073 3072 3072 3073 3073 3074 3075 3076 3077 3079 3080 3081
3111 3109 3107 3105 3103 3100 3097 3091 3085 3078 3075 3069 3057 3045 3038 3030 3024 3021 3026 3033 3039 3046 3051 3056 3059 3062 3064 3067 3068 3068 3068 3067 3066 3065 3064 3064 3063 3065 3065 3066 3068 3068 3069 3070
3108 3108 3106 3104 3102 3099 3097 3091 3084 3078 3069 3065 3056 3042 3038 3034 3028 3025 3025 3031 3036 3041 3046 3051 3055 3058 3058 3060 3061 3062 3061 3061 3059 3057 3057 3055 3054 3054 3055 3055 3055 3057 3058 3059
3108 3106 3104 3102 3100 3097 3090 3086 3080 3075 3072 3068 3064 3054 3041 3037 3033 3030 3029 3029 3033 3038 3044 3048 3050 3052 3054 3054 3056 3056 3056 3055 3054 3052 3050 3049 3047 3045 3045 3045 3044 3045 3046 3047
3110 3104 3102 3100 3098 3095 3091 3084 3077 3072 3069 3068 3065 3063 3043 3040 3037 3033 3029 3029 3030 3034 3040 3045 3048 3049 3049 3051 3052 3052 3051 3050 3049 3048 3045 3043 3040 3037 3034 3033 3032 3033 3034 3034
3106 3103 3102 3100 3098 3094 3088 3082 3072 3069 3067 3068 3065 3066 3046 3043 3040 3039 3037 3034 3035 3038 3041 3044 3045 3045 3046 3047 3048 3047 3046 3045 3044 3043 3040 3036 3032 3030 3026 3023 3022 3022 3022 3023
3104 3103 3101 3099 3097 3093 3090 3082 3073 3072 3070 3070 3066 3063 3050 3047 3044 3042 3042 3042 3040 3040 3042 3043 3043 3043 3043 3043 3042 3042 3041 3041 3040 3038 3035 3031 3026 3021 3018 3016 3015 3015 3015 3015
3104 3101 3101 3099 3097 3095 3090 3090 3091 3094 3084 3075 3064 3059 3053 3049 3045 3043 3042 3042 3044 3044 3042 3041 3041 3041 3041 3040 3040 3039 3038 3037 3036 3033 3030 3026 3021 3016 3014 3012 3010 3008 3007 3007
3107 3102 3099 3098 3096 3095 3092 3092 3093 3091 3087 3083 3063 3056 3052 3050 3048 3046 3044 3043 3043 3042 3041 3041 3040 3039 3038 3038 3037 3037 3036 3034 3031 3029 3026 3022 3018 3014 3011 3008 3005 3003 3001 2999
3108 3102 3098 3096 3094 3093 3092 3093 3092 3091 3091 3080 3063 3056 3051 3050 3048 3046 3045 3044 3043 3041 3039 3037 3037 3036 3035 3035 3034 3033 3031 3029 3027 3025 3021 3019 3016 3013 3008 3003 2999 2996 2993 2990
3107 3105 3100 3095 3092 3090 3091 3090 3090 3091 3090 3089 3082 3052 3049 3049 3047 3046 3044 3041 3039 3037 3035 3033 3031 3029 3028 3028 3027 3027 3026 3025 3022 3020 3018 3016 3013 3008 3003 2999 2995 2990 2985 2981
3106 3102 3095 3094 3089 3088 3087 3087 3087 3087 3088 3086 3084 3055 3048 3048 3046 3043 3040 3038 3035 3032 3030 3029 3027 3025 3023 3022 3021 3020 3020 3019 3017 3015 3013 3011 3008 3003 2999 2995 2990 2985 2980 2976
3104 3099 3095 3090 3090 3087 3085 3083 3083 3083 3082 3077 3079 3049 3046 3047 3045 3042 3037 3035 3033 3031 3028 3025 3022 3020 3017 3015 3013 3012 3012 3011 3010 3009 3008 3006 3003 3000 2996 2991 2986 2981 2976 2970
3099 3095 3093 3090 3088 3087 3081 3079 3078 3078 3076 3068 3052 3042 3042 3045 3041 3039 3036 3034 3031 3029 3026 3023 3019 3016 3013 3010 3008 3006 3004 3003 3003 3002 3001 2999 2997 2994 2991 2988 2983 2977 2971 2965
3094 3087 3084 3080 3078 3077 3071 3067 3067 3063 3061 3060 3042 3040 3039 3040 3037 3036 3033 3031 3028 3026 3023 3019 3016 3013 3009 3006 3003 3000 2998 2996 2995 2995 2995 2993 2991 2989 2986 2983 2980 2975 2970 2963
3086 3079 3074 3068 3069 3067 3058 3054 3052 3050 3049 3044 3040 3036 3038 3036 3035 3034 3031 3028 3025 3022 3018 3015 3012 3008 3006 3002 2998 2995 2992 2989 2987 2987 2987 2986 2985 2983 2980 2978 2975 2972 2968 2963
3082 3076 3071 3059 3063 3060 3051 3042 3043 3042 3039 3040 3036 3036 3034 3032 3030 3028 3025 3023 3019 3016 3013 3009 3006 3003 3000 2996 2993 2990 2987 2985 2982 2980 2979 2978 2978 2976 2974 2972 2970 2967 2964 2960
3071 3071 3069 3057 3058 3056 3043 3041 3038 3036 3036 3034 3033 3032 3030 3027 3025 3023 3020 3016 3012 3009 3006 3002 2998 2995 2993 2990 2987 2984 2982 2979 2977 2975 2973 2972 2971 2969 2967 2966 2964 2962 2960 2957
3062 3064 3062 3059 3052 3041 3041 3038 3035 3031 3029 3026 3025 3026 3024 3019 3014 3013 3012 3009 3006 3002 2998 2995 2991 2987 2985 2982 2978 2977 2976 2973 2970 2969 2966 2964 2964 2962 2961 2960 2958 2957 2955 2953
3057 3058 3058 3053 3049 3038 3032 3033 3031 3028 3025 3023 3021 3018 3015 3009 3003 3002 3003 3000 2997 2994 2991 2986 2984 2981 2978 2975 2971 2968 2968 2966 2964 2961 2960 2959 2956 2956 2955 2954 2953 2952 2951 2949
3050 3050 3046 3043 3037 3024 3030 3029 3026 3027 3027 3018 3013 3008 3004 3000 2999 2994 2993 2991 2989 2987 2984 2981 2976 2970 2969 2965 2961 2961 2958 2959 2957 2954 2953 2953 2952 2949 2949 2948 2947 2947 2946 2945
3044 3045 3037 3033 3030 3023 3024 3023 3026 3024 3018 3012 3005 3001 2995 2992 2989 2986 2983 2980 2977 2974 2971 2969 2963 2961 2958 2957 2951 2952 2950 2950 2948 2946 2946 2945 2945 2944 2942 2941 2941 2940 2940 2940
3035 3035 3030 3027 3017 3021 3014 3014 3014 3011 3004 2997 2995 2992 2989 2982 2977 2975 2970 2968 2964 2960 2957 2954 2950 2946 2947 2946 2943 2941 2944 2937 2937 2938 2938 2938 2936 2937 2937 2935 2934 2934 2934 2934
3020 3022 3015 3014 3010 3008 3007 3006 3002 2997 2991 2988 2985 2981 2977 2971 2967 2962 2960 2956 2952 2948 2943 2941 2937 2934 2932 2934 2930 2929 2930 2929 2927 2928 2930 2929 2930 2929 2929 2929 2928 2927 2928 2928
3013 3011 3005 2997 3000 2998 2998 2995 2990 2986 2983 2977 2974 2970 2965 2961 2956 2952 2947 2945 2940 2935 2931 2928 2924 2920 2918 2919 2916 2916 2916 2915 2915 2916 2918 2919 2919 2921 2920 2921 2921 2921 2920 2921
3000 2996 2994 2983 2993 2988 2982 2981 2978 2973 2969 2967 2962 2957 2956 2952 2944 2939 2934 2931 2927 2922 2917 2913 2910 2905 2904 2903 2902 2903 2902 2901 2899 2900 2905 2908 2909 2910 2912 2912 2913 2913 2914 2914